map of FIH home
FIH - Airport
Location
City:  Kinshasa, Kinshasa, Democratic Republic of Congo (Zaire)
Name:N'Djili International Airport
ICAO:FZAA
IATA:FIH

Details
Type:Airport (Aerodrome, Airfield)
Use:Public/Civil, International (customs port of entry)
Latitude:423'09"S (-4.385749)
Longitude:1526'40"E (15.444569)
Datum:WGS 1984
Elevation:1027 ft (313 m)
Variation:1.44W (WMM2015 magnetic declination)
0.15 annual change
Runways:1
Longest:15420 × 197 ft (4700 × 60 m), paved

Time
Time Zone:UTC+1
Local Time:

Weather
TAF:FZAA 240500Z 2406/2512 24006KT 9999 SCT019
BECMG 2410/2412 32010KT FEW022 FEW030CB PROB30
TEMPO 2415/2419 TS
BECMG 2420/2222 18004KT FEW018

Related Locations
Nearby:
Farthest:PLPA: 12244 mi / 19705 km
Palmyra Island Atoll [Palmyra Airport (Cooper)], UM

Find:

   beyond  
but within

Other Information
Maps:
NOTAMs:
Links:
Sources:

  
flag of Democratic Republic of Congo (Zaire)
flag of Kinshasa
  

Sectional Chart

Flight Planning
at skyvector.com

Satellite Image

Google Maps Satellite view

 

Copyright © 2004-2017 Karl L. Swartz. All rights reserved.
The Great Circle Mapper name and logo are trademarks of the Great Circle Mapper.
All other trademarks mentioned herein belong to their respective owners.
Please see credits for attibutions and further copyright information.

  Follow gcmap on Facebook Follow gcmap on Twitter Follow gcmap on Google+ GCmap on LinkedIn

hCard Microformat

Geo Microformat